[[{"header":{"parameterUnit":"m.s-1","parameterCategory":2,"la1":30.2991,"la2":30.254,"lo1":-89.0895,"lo2":-89.0444,"dy":0.0017,"dx":0.0017,"nx":28,"ny":28,"refTime":"2023-11-04T21:00:00:Z","depth":"0","parameterNumber":2,"parameterNumberName":"U-component_of_CURRENTS"},"data":[0,0,0,0,0,0,0,0,0,0,0,0,0,0,0,0,0,0,0,0,0,0,0,0,0,0,0,0,0,0,0,0,0,0,0,0,0,0,0,0,0,0,0,0,0,0,0,0,0,0,0,0,0,0,0,0,0,0,-0.3624,-0.3623,0,-0.3542,-0.3541,-0.354,-0.3482,-0.3482,-0.3482,-0.3482,-0.33,-0.3295,-0.3291,0,0,0,0,0,0,0,0,0,0,0,0,0,-0.3652,-0.3652,-0.3624,-0.3623,-0.3622,-0.3542,-0.3541,-0.354,-0.3482,-0.3482,-0.3482,-0.3481,-0.3301,-0.3296,-0.329,0,0,0,0,0,0,0,0,0,0,0,0,0,-0.361,-0.3652,-0.3624,-0.3585,-0.3581,-0.3543,-0.3541,-0.3539,-0.3482,-0.3482,-0.3482,-0.3481,-0.3303,-0.3296,-0.329,-0.3255,0,0,-0.3269,-0.3266,0,0,0,0,0,0,0,0,-0.3613,-0.3609,-0.3592,-0.3588,-0.3583,-0.3524,-0.3485,-0.344,-0.3483,-0.3518,-0.3482,-0.3481,-0.3367,-0.3355,-0.3339,-0.3246,-0.3238,-0.3268,-0.3264,-0.3261,-0.3259,0,0,0,0,0,0,0,-0.3616,-0.3612,-0.3589,-0.3591,-0.3586,-0.3546,-0.354,-0.3476,-0.3442,-0.3515,-0.3511,-0.3505,-0.3364,-0.3346,-0.3334,-0.3236,-0.3268,-0.3262,-0.3258,-0.3255,-0.3118,-0.3119,0,0,0,0,0,0,-0.3635,-0.3615,-0.3592,-0.3587,-0.36,-0.3546,-0.3539,-0.3542,-0.3445,-0.3431,-0.3506,-0.3503,-0.3358,-0.3342,-0.3327,-0.3306,-0.3261,-0.3254,-0.325,-0.3118,-0.3118,-0.3119,0,0,0,0,0,0,-0.3636,-0.3634,-0.3595,-0.36,-0.3593,-0.3547,-0.3549,-0.354,-0.3529,-0.344,-0.3423,-0.3505,-0.3357,-0.3337,-0.3276,-0.3297,-0.3251,-0.3245,-0.3117,-0.3118,-0.3118,-0.3245,0,0,0,0,0,0,-0.3637,-0.3635,-0.3647,-0.3602,-0.3593,-0.3595,-0.355,-0.3539,-0.3527,-0.3523,-0.3433,-0.3416,-0.3355,-0.3287,-0.327,-0.3287,-0.324,-0.3116,-0.3117,-0.3118,-0.3241,-0.325,-0.3259,0,0,0,0,0,-0.3639,-0.3666,-0.3648,-0.3645,-0.361,-0.3596,-0.3589,-0.3552,-0.3528,-0.3537,-0.3466,-0.3419,-0.3281,-0.3282,-0.3261,-0.3277,-0.3116,-0.3117,-0.3118,-0.3236,-0.3248,-0.3259,0,0,0,0,0,0,-0.3681,-0.3662,-0.3641,-0.3659,-0.3637,-0.3588,-0.359,-0.3563,-0.3515,-0.3501,-0.3416,-0.3394,-0.3357,-0.3293,-0.3297,-0.324,-0.3194,-0.3191,-0.3291,-0.3302,-0.3311,-0.3333,-0.3234,0,0,0,0,0,-0.3697,-0.3711,-0.368,-0.3691,-0.3685,-0.3637,-0.3626,-0.3601,-0.3552,-0.3532,-0.3463,-0.3391,-0.3344,-0.3305,-0.325,-0.3207,-0.3158,-0.3205,-0.3214,-0.3223,-0.3226,-0.3172,-0.3177,-0.3122,-0.3122,-0.3122,0,0,-0.3713,-0.3704,-0.371,-0.3701,-0.3674,-0.3674,-0.363,-0.3621,-0.3613,-0.3516,-0.3475,-0.3422,-0.3342,-0.3306,-0.3282,-0.3253,-0.3216,-0.3224,-0.3232,-0.3231,-0.3173,-0.3179,-0.3184,-0.3123,-0.3123,-0.3123,0,0,-0.3753,-0.3746,-0.3769,-0.3759,-0.3736,-0.3708,-0.3713,-0.3665,-0.3641,-0.3597,-0.3538,-0.3495,-0.3399,-0.3358,-0.3323,-0.3344,-0.3275,-0.3329,-0.3381,-0.3328,-0.3333,-0.3336,-0.3301,-0.33,-0.3324,-0.3324,-0.3324,0,-0.3765,-0.3796,-0.3773,-0.3789,-0.3784,-0.373,-0.3746,-0.3716,-0.3652,-0.3632,-0.3598,-0.3483,-0.3426,-0.3391,-0.3408,-0.3368,-0.3328,-0.3351,-0.3342,-0.3344,-0.3345,-0.3309,-0.3306,-0.333,-0.3329,-0.3329,-0.3328,0,-0.3822,-0.3841,-0.3854,-0.3853,-0.3848,-0.3854,-0.3813,-0.3795,-0.3749,-0.3707,-0.366,-0.3577,-0.3505,-0.3497,-0.3458,-0.3446,-0.3415,-0.3372,-0.3322,-0.3359,-0.3317,-0.3312,-0.3339,-0.3337,-0.3335,-0.3333,0,0,-0.385,-0.3887,-0.389,-0.3891,-0.3884,-0.3871,-0.3876,-0.3854,-0.3823,-0.3773,-0.373,-0.3685,-0.3629,-0.3588,-0.3533,-0.3501,-0.3493,-0.345,-0.3444,-0.343,-0.339,-0.3124,-0.3092,-0.3448,-0.3447,-0.3447,-0.3366,0,-0.3892,-0.3941,-0.3952,-0.3971,-0.3982,-0.3952,-0.3944,-0.3913,-0.386,-0.3799,-0.3743,-0.367,-0.3664,-0.3611,-0.3592,-0.35,-0.3481,-0.3519,-0.3343,-0.3338,-0.3107,-0.3077,-0.2957,-0.2852,-0.336,-0.336,-0.3359,0,-0.3943,-0.3963,-0.4012,-0.4007,-0.4007,-0.4009,-0.3969,-0.3951,-0.3883,-0.3835,-0.3785,-0.3709,-0.3662,-0.3628,-0.3537,-0.3559,-0.3499,-0.3441,-0.3434,-0.3133,-0.3059,-0.289,-0.2822,-0.2823,-0.335,-0.3351,-0.3351,0,-0.3956,-0.3996,-0.4034,-0.4037,-0.4031,-0.4036,-0.4016,-0.3965,-0.3912,-0.384,-0.3777,-0.3721,-0.3643,-0.3584,-0.3458,-0.3499,-0.3326,-0.3355,-0.3076,-0.3059,-0.289,-0.2854,-0.2804,-0.33,-0.3301,-0.3301,-0.3301,0,-0.3995,-0.4007,-0.4038,-0.4047,-0.4027,-0.4037,-0.3986,-0.3957,-0.3892,-0.3802,-0.378,-0.3679,-0.3625,-0.3506,-0.3442,-0.3197,-0.3306,-0.3066,-0.2999,-0.2927,-0.2898,-0.2832,-0.288,-0.3298,-0.3298,-0.3299,-0.33,0,-0.3971,-0.4029,-0.4028,-0.4039,-0.4031,-0.4,-0.3936,-0.3889,-0.3855,-0.3737,-0.3707,-0.3631,-0.346,-0.3362,-0.3221,-0.3115,-0.2862,-0.2841,-0.2753,-0.2672,-0.2379,-0.2437,-0.2259,-0.2197,-0.2533,-0.2526,-0.2519,0,-0.3954,-0.3961,-0.397,-0.3959,-0.3957,-0.3917,-0.3876,-0.3849,-0.3796,-0.3675,-0.3614,-0.3446,-0.3215,-0.29,-0.2727,-0.2503,-0.2582,-0.227,-0.2306,-0.2306,-0.2328,-0.2397,-0.2369,-0.218,-0.2171,-0.2164,-0.2159,0,-0.3838,-0.3853,-0.3846,-0.3835,-0.3815,-0.3733,-0.3692,-0.3643,-0.3593,-0.3476,-0.3262,-0.3056,-0.278,-0.2429,-0.2151,-0.2046,-0.2195,-0.211,-0.2154,-0.2049,-0.2083,-0.2009,-0.2327,-0.2096,-0.2103,-0.2107,-0.2111,-0.2113,-0.3699,-0.3653,-0.3654,-0.3625,-0.3612,-0.3494,-0.3309,-0.3285,-0.3096,-0.2777,-0.2835,-0.2352,-0.2206,-0.1757,-0.1676,-0.1537,-0.1681,-0.1509,-0.159,-0.1668,-0.1556,-0.1695,-0.1336,-0.1337,-0.1339,-0.134,-0.1342,0,-0.3423,-0.3418,-0.3422,-0.3345,-0.3239,-0.3283,-0.3114,-0.2858,-0.2537,-0.2304,-0.198,-0.1512,-0.1278,-0.1228,-0.1173,-0.1084,-0.1165,-0.1089,-0.1272,-0.1275,-0.1431,-0.1359,-0.0931,-0.0931,-0.0931,-0.0931,-0.0931,-0.0931,-0.3288,-0.3163,-0.3184,-0.2956,-0.2903,-0.2515,-0.2327,-0.2052,-0.1779,-0.1204,-0.0785,-0.0585,-0.0715,-0.0968,-0.1012,-0.0972,-0.1045,-0.0939,-0.102,-0.1264,-0.1316,-0.1366,-0.1311,-0.0879,-0.0879,-0.0847,-0.0846,-0.0846]},{"header":{"parameterUnit":"m.s-1","parameterCategory":2,"la1":30.2991,"la2":30.254,"lo1":-89.0895,"lo2":-89.0444,"dy":0.0017,"dx":0.0017,"nx":28,"ny":28,"refTime":"2023-11-04T21:00:00:Z","depth":"0","parameterNumber":3,"parameterNumberName":"V-component_of_CURRENTS"},"data":[0,0,0,0,0,0,0,0,0,0,0,0,0,0,0,0,0,0,0,0,0,0,0,0,0,0,0,0,0,0,0,0,0,0,0,0,0,0,0,0,0,0,0,0,0,0,0,0,0,0,0,0,0,0,0,0,0,0,-0.1342,-0.1342,0,-0.1297,-0.1297,-0.1296,-0.1263,-0.1263,-0.1263,-0.1263,-0.1123,-0.112,-0.1116,0,0,0,0,0,0,0,0,0,0,0,0,0,-0.1381,-0.1381,-0.1342,-0.1342,-0.1342,-0.1297,-0.1297,-0.1296,-0.1263,-0.1263,-0.1263,-0.1263,-0.1124,-0.112,-0.1116,0,0,0,0,0,0,0,0,0,0,0,0,0,-0.1352,-0.1381,-0.1342,-0.1321,-0.1319,-0.1298,-0.1297,-0.1296,-0.1263,-0.1263,-0.1263,-0.1263,-0.1126,-0.1121,-0.1115,-0.1085,0,0,-0.1099,-0.1096,0,0,0,0,0,0,0,0,-0.1353,-0.135,-0.1325,-0.1323,-0.132,-0.1287,-0.1259,-0.1221,-0.1263,-0.1283,-0.1263,-0.1263,-0.117,-0.1161,-0.1152,-0.1079,-0.1073,-0.1098,-0.1095,-0.1093,-0.1091,0,0,0,0,0,0,0,-0.1356,-0.1352,-0.1323,-0.1324,-0.1322,-0.1308,-0.1303,-0.1252,-0.1225,-0.1281,-0.1279,-0.1277,-0.1168,-0.1158,-0.1149,-0.1071,-0.1098,-0.1094,-0.109,-0.1088,-0.1018,-0.1019,0,0,0,0,0,0,-0.1366,-0.1354,-0.1324,-0.1322,-0.1339,-0.1307,-0.1302,-0.1297,-0.1228,-0.1218,-0.1277,-0.1275,-0.1167,-0.1155,-0.1143,-0.1118,-0.1093,-0.1088,-0.1084,-0.1017,-0.1018,-0.102,0,0,0,0,0,0,-0.1367,-0.1363,-0.1326,-0.1338,-0.1333,-0.1307,-0.1301,-0.1296,-0.1289,-0.1226,-0.1214,-0.1277,-0.1166,-0.1151,-0.1106,-0.1112,-0.1085,-0.108,-0.1015,-0.1017,-0.1019,-0.1059,0,0,0,0,0,0,-0.1368,-0.1364,-0.1366,-0.1339,-0.1333,-0.1319,-0.1301,-0.1295,-0.1289,-0.1286,-0.1221,-0.1208,-0.1165,-0.1114,-0.11,-0.1104,-0.1076,-0.1013,-0.1016,-0.1019,-0.1056,-0.1062,-0.1067,0,0,0,0,0,-0.1369,-0.1384,-0.1367,-0.1363,-0.1336,-0.132,-0.1315,-0.1295,-0.1289,-0.1288,-0.1247,-0.121,-0.1122,-0.111,-0.1094,-0.1096,-0.1012,-0.1015,-0.1018,-0.1053,-0.1061,-0.1067,0,0,0,0,0,0,-0.141,-0.1381,-0.1362,-0.1368,-0.1344,-0.1315,-0.1321,-0.1302,-0.127,-0.127,-0.1209,-0.1192,-0.1162,-0.113,-0.1118,-0.1091,-0.1069,-0.1069,-0.1101,-0.1107,-0.1113,-0.1119,-0.1071,0,0,0,0,0,-0.1417,-0.1415,-0.1382,-0.1386,-0.138,-0.1349,-0.1342,-0.1326,-0.1295,-0.1283,-0.1232,-0.1193,-0.1163,-0.1135,-0.1101,-0.1068,-0.1024,-0.1069,-0.1075,-0.108,-0.1078,-0.1059,-0.1062,-0.103,-0.103,-0.103,0,0,-0.1434,-0.1418,-0.1417,-0.1394,-0.1377,-0.1373,-0.1344,-0.1341,-0.1332,-0.127,-0.124,-0.1205,-0.1162,-0.1134,-0.1119,-0.1104,-0.1056,-0.1084,-0.1088,-0.1083,-0.1062,-0.1065,-0.1067,-0.1032,-0.1032,-0.1032,0,0,-0.1476,-0.1452,-0.1467,-0.1448,-0.1428,-0.1403,-0.1404,-0.137,-0.135,-0.1317,-0.1282,-0.1246,-0.119,-0.1156,-0.1136,-0.1152,-0.1092,-0.1157,-0.1177,-0.1158,-0.116,-0.1161,-0.1058,-0.105,-0.1155,-0.1156,-0.1156,0,-0.1502,-0.1504,-0.147,-0.1477,-0.1467,-0.142,-0.143,-0.1403,-0.1354,-0.134,-0.1317,-0.1251,-0.12,-0.1175,-0.118,-0.116,-0.1122,-0.1147,-0.1163,-0.1164,-0.1164,-0.1059,-0.105,-0.1158,-0.1158,-0.1157,-0.1157,0,-0.1553,-0.1547,-0.1557,-0.154,-0.1524,-0.1525,-0.1481,-0.1459,-0.1426,-0.1395,-0.1361,-0.1294,-0.1257,-0.1241,-0.1204,-0.1194,-0.1152,-0.1174,-0.114,-0.1169,-0.1056,-0.1046,-0.1161,-0.116,-0.116,-0.1159,0,0,-0.1634,-0.16,-0.1601,-0.1599,-0.1556,-0.1554,-0.1531,-0.1502,-0.15,-0.144,-0.1429,-0.136,-0.1327,-0.1303,-0.1258,-0.1226,-0.1163,-0.1203,-0.1201,-0.1088,-0.1066,-0.0896,-0.0867,-0.1203,-0.1203,-0.1203,-0.0965,0,-0.1685,-0.1704,-0.1668,-0.168,-0.1684,-0.1625,-0.1611,-0.1576,-0.1533,-0.1506,-0.1438,-0.1414,-0.1353,-0.1339,-0.1296,-0.1228,-0.1147,-0.1221,-0.1065,-0.1058,-0.0895,-0.0854,-0.0769,-0.0541,-0.0954,-0.0953,-0.0951,0,-0.175,-0.1749,-0.1769,-0.1742,-0.1742,-0.1741,-0.1712,-0.1691,-0.1635,-0.1603,-0.1556,-0.1505,-0.1437,-0.1393,-0.1245,-0.1305,-0.1173,-0.1096,-0.1087,-0.0911,-0.087,-0.0591,-0.0506,-0.0378,-0.0934,-0.0936,-0.0937,0,-0.1826,-0.1819,-0.1836,-0.1828,-0.1795,-0.1798,-0.1778,-0.173,-0.1716,-0.1668,-0.1654,-0.1575,-0.1525,-0.1409,-0.12,-0.1248,-0.1009,-0.1062,-0.0756,-0.074,-0.0623,-0.0597,-0.0387,-0.0919,-0.092,-0.092,-0.0921,0,-0.1892,-0.1904,-0.1878,-0.189,-0.1921,-0.1871,-0.1891,-0.1857,-0.1812,-0.1766,-0.1715,-0.164,-0.1537,-0.1373,-0.1209,-0.0909,-0.1,-0.0723,-0.0672,-0.0627,-0.0605,-0.0455,-0.0442,-0.0911,-0.0913,-0.0915,-0.0917,0,-0.1963,-0.1945,-0.197,-0.1956,-0.1958,-0.1981,-0.196,-0.1954,-0.1916,-0.1849,-0.1834,-0.1704,-0.1468,-0.1278,-0.1039,-0.0887,-0.052,-0.0496,-0.0393,-0.0334,0.0015,0.0022,0.0303,0.0406,-0.0173,-0.0167,-0.0162,0,-0.1995,-0.201,-0.2028,-0.205,-0.2048,-0.2066,-0.2058,-0.2013,-0.197,-0.1832,-0.1777,-0.157,-0.131,-0.0895,-0.0615,-0.026,-0.0208,0.0008,-0.0073,0.0095,0.0136,0.0123,0.0184,0.0089,0.0096,0.0101,0.0105,0,-0.2039,-0.2047,-0.2071,-0.2115,-0.2128,-0.2105,-0.2069,-0.2021,-0.19,-0.177,-0.1487,-0.1279,-0.0914,-0.0486,-0.0095,0.0089,0.0108,0.0128,0.0237,0.0331,0.0391,0.0494,-0.0076,0.0151,0.0146,0.0143,0.0141,0.0139,-0.2066,-0.2093,-0.2116,-0.2152,-0.2141,-0.202,-0.1895,-0.178,-0.1566,-0.1168,-0.1117,-0.064,-0.0363,0.0205,0.0386,0.069,0.0568,0.0749,0.0745,0.072,0.0812,0.0409,0.0718,0.0716,0.0715,0.0714,0.0713,0,-0.2045,-0.2066,-0.2129,-0.2092,-0.1998,-0.1996,-0.1795,-0.1554,-0.1129,-0.0781,-0.0384,0.0191,0.0578,0.0781,0.1103,0.1268,0.1239,0.131,0.1258,0.1289,0.0893,0.0896,0.1335,0.1334,0.1334,0.1334,0.1334,0.1334,-0.2042,-0.2054,-0.2078,-0.1923,-0.1843,-0.1524,-0.1309,-0.0953,-0.0619,0.0114,0.0587,0.089,0.105,0.1394,0.165,0.1671,0.1754,0.1766,0.1802,0.1459,0.1403,0.1349,0.1356,0.1885,0.1885,0.2195,0.2198,0.22]}],[{"header":{"parameterUnit":"m.s-1","parameterCategory":2,"la1":30.2991,"la2":30.254,"lo1":-89.0895,"lo2":-89.0444,"dy":0.0017,"dx":0.0017,"nx":28,"ny":28,"refTime":"2023-11-04T21:00:00:Z","depth":"2","parameterNumber":2,"parameterNumberName":"U-component_of_CURRENTS"},"data":[0,0,0,0,0,0,0,0,0,0,0,0,0,0,0,0,0,0,0,0,0,0,0,0,0,0,0,0,0,0,0,0,0,0,0,0,0,0,0,0,0,0,0,0,0,0,0,0,0,0,0,0,0,0,0,0,0,0,-0.2222,-0.2223,0,-0.2304,-0.2305,-0.2305,-0.2346,-0.2346,-0.2347,-0.2347,-0.2444,-0.2446,-0.2448,0,0,0,0,0,0,0,0,0,0,0,0,0,-0.2057,-0.206,-0.2222,-0.2223,-0.2225,-0.2304,-0.2305,-0.2306,-0.2346,-0.2346,-0.2347,-0.2347,-0.2443,-0.2446,-0.2448,0,0,0,0,0,0,0,0,0,0,0,0,0,-0.213,-0.2061,-0.2222,-0.2256,-0.226,-0.2304,-0.2305,-0.2306,-0.2346,-0.2346,-0.2347,-0.2347,-0.2442,-0.2445,-0.2449,-0.2463,0,0,-0.246,-0.2461,0,0,0,0,0,0,0,0,-0.2126,-0.2136,-0.225,-0.2254,-0.2259,-0.2318,-0.2282,-0.236,-0.2346,-0.2311,-0.2347,-0.2347,-0.2404,-0.2411,-0.2421,-0.2467,-0.2472,-0.246,-0.2462,-0.2464,-0.2465,0,0,0,0,0,0,0,-0.2121,-0.2132,-0.2252,-0.2251,-0.2257,-0.2253,-0.2264,-0.2296,-0.2353,-0.2314,-0.2318,-0.2331,-0.2407,-0.2418,-0.2424,-0.2473,-0.246,-0.2463,-0.2465,-0.2466,-0.2524,-0.2524,0,0,0,0,0,0,-0.2119,-0.2128,-0.2249,-0.2255,-0.2195,-0.2256,-0.2268,-0.2296,-0.2352,-0.2362,-0.233,-0.2332,-0.2412,-0.242,-0.2428,-0.2449,-0.2464,-0.2467,-0.2469,-0.2525,-0.2524,-0.2524,0,0,0,0,0,0,-0.2115,-0.2129,-0.2246,-0.2194,-0.2209,-0.2259,-0.229,-0.2298,-0.2329,-0.2365,-0.2374,-0.2356,-0.2412,-0.2423,-0.2453,-0.2453,-0.2468,-0.2472,-0.2526,-0.2525,-0.2524,-0.2491,0,0,0,0,0,0,-0.211,-0.2128,-0.2146,-0.2195,-0.2212,-0.228,-0.229,-0.2299,-0.2336,-0.234,-0.239,-0.2398,-0.2413,-0.2447,-0.2456,-0.2458,-0.2474,-0.2526,-0.2525,-0.2524,-0.2493,-0.2489,-0.2486,0,0,0,0,0,-0.2104,-0.2132,-0.2147,-0.2162,-0.2237,-0.2281,-0.229,-0.2323,-0.2337,-0.2352,-0.2372,-0.2397,-0.2446,-0.245,-0.246,-0.2464,-0.2527,-0.2526,-0.2524,-0.2494,-0.249,-0.2486,0,0,0,0,0,0,-0.2096,-0.214,-0.2158,-0.2206,-0.2243,-0.2289,-0.2312,-0.2333,-0.2362,-0.2368,-0.2398,-0.2407,-0.2429,-0.2451,-0.2453,-0.2474,-0.2489,-0.2489,-0.2462,-0.2458,-0.2455,-0.2409,-0.2477,0,0,0,0,0,-0.2097,-0.2106,-0.2167,-0.2199,-0.2228,-0.2272,-0.2295,-0.2318,-0.2351,-0.2365,-0.2394,-0.2417,-0.2429,-0.2448,-0.2465,-0.2488,-0.2475,-0.2493,-0.249,-0.2487,-0.2455,-0.2431,-0.2422,-0.2519,-0.2519,-0.2519,0,0,-0.2103,-0.2124,-0.2135,-0.2193,-0.2229,-0.2256,-0.2287,-0.2329,-0.2335,-0.2371,-0.2391,-0.2412,-0.2431,-0.2442,-0.2455,-0.2465,-0.2456,-0.2485,-0.2483,-0.2451,-0.2429,-0.2419,-0.241,-0.2519,-0.2519,-0.2519,0,0,-0.2096,-0.2146,-0.2147,-0.2179,-0.2227,-0.2254,-0.2271,-0.2326,-0.234,-0.2372,-0.2376,-0.2376,-0.2442,-0.2414,-0.2419,-0.2406,-0.2436,-0.2443,-0.2396,-0.2375,-0.2366,-0.2358,-0.2342,-0.2333,-0.2445,-0.2445,-0.2445,0,-0.2101,-0.2118,-0.2157,-0.2171,-0.2193,-0.2254,-0.2271,-0.2294,-0.234,-0.2341,-0.2379,-0.2395,-0.241,-0.2376,-0.2366,-0.2394,-0.2403,-0.2414,-0.2368,-0.236,-0.2353,-0.2338,-0.2328,-0.2443,-0.2444,-0.2444,-0.2444,0,-0.2102,-0.2113,-0.2127,-0.215,-0.2177,-0.2209,-0.2251,-0.2273,-0.2311,-0.2327,-0.2329,-0.2336,-0.234,-0.2348,-0.2359,-0.2309,-0.234,-0.2365,-0.2376,-0.2341,-0.2328,-0.2319,-0.2441,-0.2442,-0.2442,-0.2442,0,0,-0.2081,-0.2121,-0.2112,-0.2123,-0.2172,-0.2198,-0.2206,-0.223,-0.2241,-0.227,-0.2268,-0.2252,-0.2263,-0.2262,-0.2268,-0.2239,-0.2192,-0.2284,-0.2284,-0.2262,-0.2164,-0.2101,-0.2085,-0.2234,-0.2232,-0.223,-0.2182,0,-0.2062,-0.2074,-0.2091,-0.2098,-0.212,-0.2164,-0.2172,-0.2192,-0.2228,-0.2244,-0.2226,-0.2238,-0.2232,-0.2246,-0.2206,-0.2209,-0.2165,-0.2203,-0.2205,-0.2203,-0.2147,-0.2069,-0.1919,-0.1856,-0.2172,-0.2171,-0.217,0,-0.2016,-0.204,-0.2049,-0.2077,-0.2095,-0.2107,-0.2137,-0.2154,-0.2174,-0.2204,-0.219,-0.2211,-0.2151,-0.2175,-0.2105,-0.2149,-0.2132,-0.2125,-0.2125,-0.2059,-0.212,-0.194,-0.1826,-0.2154,-0.2155,-0.2156,-0.2157,0,-0.1944,-0.1979,-0.1985,-0.2003,-0.2066,-0.2071,-0.2104,-0.2132,-0.2154,-0.217,-0.2197,-0.2154,-0.2148,-0.2112,-0.2087,-0.2115,-0.2029,-0.2073,-0.1981,-0.1979,-0.1838,-0.1826,-0.1989,-0.1989,-0.1989,-0.1989,-0.1989,0,-0.1884,-0.1883,-0.1962,-0.1973,-0.1999,-0.2043,-0.2062,-0.2095,-0.2133,-0.2136,-0.2166,-0.2147,-0.2137,-0.2102,-0.2076,-0.1985,-0.2014,-0.1929,-0.1941,-0.1825,-0.1813,-0.2065,-0.2075,-0.1987,-0.1988,-0.1988,-0.1988,0,-0.1782,-0.183,-0.1854,-0.1936,-0.196,-0.1979,-0.2054,-0.2068,-0.2118,-0.212,-0.2126,-0.2141,-0.2082,-0.206,-0.2002,-0.196,-0.1896,-0.1855,-0.172,-0.1714,-0.1869,-0.1877,-0.1745,-0.1741,-0.1739,-0.1737,-0.1735,0,-0.1728,-0.173,-0.1822,-0.1844,-0.1882,-0.1929,-0.1955,-0.2039,-0.2044,-0.2089,-0.2066,-0.2051,-0.1983,-0.1889,-0.1804,-0.172,-0.1802,-0.1555,-0.1543,-0.1807,-0.1833,-0.1846,-0.1858,-0.136,-0.1355,-0.1351,-0.1348,0,-0.1646,-0.1681,-0.1723,-0.1762,-0.1798,-0.1834,-0.187,-0.1885,-0.1949,-0.1966,-0.1934,-0.1899,-0.1801,-0.1631,-0.1544,-0.1482,-0.156,-0.1472,-0.1756,-0.145,-0.144,-0.1469,-0.1493,-0.1313,-0.1317,-0.1319,-0.1321,-0.1322,-0.1582,-0.1598,-0.1639,-0.166,-0.1696,-0.1684,-0.1661,-0.1708,-0.171,-0.1685,-0.174,-0.1643,-0.1592,-0.1363,-0.1268,-0.1197,-0.1309,-0.126,-0.1273,-0.129,-0.1258,-0.1245,-0.1076,-0.1078,-0.108,-0.1081,-0.1082,0,-0.1491,-0.1509,-0.1525,-0.153,-0.1486,-0.1551,-0.1549,-0.1496,-0.1445,-0.1476,-0.1443,-0.1264,-0.1143,-0.1103,-0.0924,-0.0886,-0.089,-0.0859,-0.0867,-0.0901,-0.0931,-0.0883,-0.06,-0.0599,-0.0598,-0.0597,0,0,-0.1442,-0.1421,-0.142,-0.1296,-0.1287,-0.119,-0.1156,-0.1128,-0.1112,-0.1054,-0.1023,-0.1106,-0.1079,-0.0863,-0.0788,-0.0664,-0.0783,-0.0625,-0.1007,-0.1051,-0.108,-0.1149,-0.1111,0,0,0,0,0]},{"header":{"parameterUnit":"m.s-1","parameterCategory":2,"la1":30.2991,"la2":30.254,"lo1":-89.0895,"lo2":-89.0444,"dy":0.0017,"dx":0.0017,"nx":28,"ny":28,"refTime":"2023-11-04T21:00:00:Z","depth":"2","parameterNumber":3,"parameterNumberName":"V-component_of_CURRENTS"},"data":[0,0,0,0,0,0,0,0,0,0,0,0,0,0,0,0,0,0,0,0,0,0,0,0,0,0,0,0,0,0,0,0,0,0,0,0,0,0,0,0,0,0,0,0,0,0,0,0,0,0,0,0,0,0,0,0,0,0,-0.0429,-0.0428,0,-0.0336,-0.0335,-0.0334,-0.0278,-0.0278,-0.0277,-0.0277,-0.0056,-0.0051,-0.0045,0,0,0,0,0,0,0,0,0,0,0,0,0,-0.0511,-0.051,-0.043,-0.0428,-0.0427,-0.0337,-0.0335,-0.0334,-0.0278,-0.0278,-0.0277,-0.0277,-0.0058,-0.0051,-0.0045,0,0,0,0,0,0,0,0,0,0,0,0,0,-0.0453,-0.051,-0.043,-0.0388,-0.0383,-0.0337,-0.0335,-0.0334,-0.0278,-0.0278,-0.0277,-0.0277,-0.006,-0.0052,-0.0044,-0.0001,0,0,-0.0018,-0.0014,0,0,0,0,0,0,0,0,-0.0456,-0.045,-0.0395,-0.0391,-0.0386,-0.0318,-0.0283,-0.0216,-0.0278,-0.0318,-0.0277,-0.0277,-0.0132,-0.0118,-0.0103,0.001,0.0019,-0.0017,-0.0012,-0.0008,-0.0006,0,0,0,0,0,0,0,-0.046,-0.0453,-0.0393,-0.0394,-0.0388,-0.0358,-0.0349,-0.027,-0.0227,-0.0315,-0.031,-0.03,-0.0128,-0.0112,-0.0097,0.0022,-0.0017,-0.001,-0.0005,-0.0001,0.0204,0.0204,0,0,0,0,0,0,-0.0474,-0.0457,-0.0396,-0.039,-0.042,-0.0357,-0.0347,-0.034,-0.023,-0.0214,-0.03,-0.0298,-0.0126,-0.0107,-0.0089,-0.0022,-0.0009,-0.0001,0.0004,0.0204,0.0204,0.0205,0,0,0,0,0,0,-0.0477,-0.047,-0.04,-0.0421,-0.041,-0.0356,-0.0348,-0.0339,-0.0318,-0.022,-0.0202,-0.0289,-0.0125,-0.0101,-0.0037,-0.0013,0.0003,0.0011,0.0203,0.0204,0.0204,0.0107,0,0,0,0,0,0,-0.0479,-0.0471,-0.0477,-0.0422,-0.0409,-0.0376,-0.0348,-0.0337,-0.0312,-0.0308,-0.0204,-0.0184,-0.0123,-0.005,-0.0029,-0.0001,0.0017,0.0203,0.0203,0.0204,0.011,0.0104,0.01,0,0,0,0,0,-0.0483,-0.0486,-0.0478,-0.047,-0.0417,-0.0376,-0.0367,-0.0327,-0.0313,-0.0306,-0.025,-0.0187,-0.0029,-0.0044,-0.0018,0.0012,0.0202,0.0203,0.0204,0.0112,0.0105,0.01,0,0,0,0,0,0,-0.0517,-0.0479,-0.0469,-0.0459,-0.0425,-0.0367,-0.0356,-0.0331,-0.0283,-0.0277,-0.019,-0.0166,-0.0098,-0.0033,-0.0052,0.0074,0.0102,0.0108,0.0023,0.0018,0.0013,-0.0002,0.0024,0,0,0,0,0,-0.0531,-0.0532,-0.0482,-0.0479,-0.046,-0.0411,-0.0392,-0.0365,-0.0314,-0.0294,-0.0226,-0.0147,-0.0074,-0.0025,0.0045,0.0113,0.0156,0.0153,0.0148,0.0143,0.0148,0.0203,0.0202,0.0208,0.0208,0.0208,0,0,-0.0542,-0.0525,-0.0523,-0.0488,-0.0457,-0.0431,-0.0398,-0.0371,-0.0349,-0.0273,-0.0226,-0.0165,-0.0063,0.0002,0.0042,0.0061,0.0162,0.0144,0.0139,0.0147,0.0204,0.0203,0.0202,0.0208,0.0208,0.0208,0,0,-0.0562,-0.0549,-0.0551,-0.0526,-0.0488,-0.0453,-0.0448,-0.0392,-0.0367,-0.032,-0.026,-0.0202,-0.0084,-0.0019,0.0034,0.0048,0.0125,0.0088,0.0063,0.0115,0.0114,0.0114,0.0151,0.0156,0.0094,0.0093,0.0093,0,-0.0578,-0.0572,-0.0544,-0.0534,-0.0513,-0.0465,-0.0449,-0.0414,-0.035,-0.0325,-0.0314,-0.0168,-0.0094,-0.0003,-0.0002,0.0038,0.0075,0.0072,0.0105,0.0107,0.0109,0.0147,0.0153,0.0089,0.0089,0.009,0.009,0,-0.059,-0.0585,-0.0581,-0.0555,-0.053,-0.0511,-0.0458,-0.0433,-0.0399,-0.0358,-0.0285,-0.0207,-0.0116,-0.0081,-0.0034,0.0031,0.0053,0.008,0.0111,0.0102,0.0143,0.0151,0.0082,0.0084,0.0085,0.0086,0,0,-0.0623,-0.0595,-0.0594,-0.0588,-0.054,-0.0519,-0.0485,-0.0431,-0.0405,-0.0351,-0.0308,-0.0206,-0.0171,-0.011,-0.0044,0.0003,0.0035,0.0044,0.0049,0.0064,0.0142,0.0162,0.0174,0.0066,0.0067,0.0068,0.0158,0,-0.0638,-0.0636,-0.0608,-0.0595,-0.0584,-0.0534,-0.0504,-0.0456,-0.0407,-0.0357,-0.0279,-0.0215,-0.0176,-0.0138,-0.0087,0.0014,0.0055,0.0008,0.0166,0.017,0.0176,0.0184,0.0165,0.0245,0.0167,0.0168,0.0169,0,-0.0652,-0.0654,-0.0647,-0.0619,-0.0606,-0.0589,-0.0534,-0.0502,-0.0422,-0.0383,-0.0316,-0.0253,-0.0166,-0.0144,0.0003,-0.0028,0.0047,0.0112,0.0117,0.018,0.0206,0.0249,0.0263,0.0183,0.0182,0.0181,0.018,0,-0.0693,-0.0674,-0.0674,-0.0665,-0.0624,-0.0611,-0.0584,-0.0515,-0.0485,-0.0404,-0.0371,-0.0265,-0.0204,-0.0104,0.0024,0.0019,0.0177,0.019,0.0276,0.0278,0.0317,0.032,0.0282,0.0282,0.0282,0.0282,0.0281,0,-0.0716,-0.0716,-0.0698,-0.0702,-0.0706,-0.0656,-0.0638,-0.0596,-0.0525,-0.0481,-0.0394,-0.0334,-0.0191,-0.0083,0.0021,0.0175,0.0177,0.0277,0.0308,0.0282,0.0281,0.0277,0.0275,0.0285,0.0284,0.0284,0.0283,0,-0.0753,-0.0737,-0.0749,-0.0731,-0.0729,-0.0736,-0.0694,-0.0675,-0.06,-0.054,-0.0518,-0.0376,-0.0227,-0.0089,0.0092,0.0178,0.0314,0.0364,0.0314,0.0338,0.0378,0.037,0.0472,0.0474,0.0475,0.0476,0.0477,0,-0.0765,-0.0777,-0.0795,-0.0816,-0.0812,-0.0811,-0.0807,-0.0733,-0.0698,-0.0559,-0.0528,-0.0375,-0.025,0.0011,0.0188,0.0372,0.0364,0.0449,0.0439,0.038,0.04,0.039,0.0381,0.0447,0.0448,0.0448,0.0449,0,-0.0803,-0.0816,-0.0839,-0.0891,-0.0906,-0.0907,-0.0883,-0.0862,-0.0752,-0.0682,-0.0547,-0.0438,-0.0165,0.0054,0.0288,0.0385,0.0417,0.0466,0.0439,0.0396,0.0363,0.038,0.0371,0.0453,0.0453,0.0453,0.0452,0.0452,-0.0839,-0.0884,-0.0926,-0.0966,-0.0985,-0.0982,-0.097,-0.0921,-0.0857,-0.071,-0.0593,-0.0396,-0.0162,0.0184,0.0352,0.0499,0.0495,0.0524,0.052,0.0516,0.0492,0.0462,0.0566,0.0566,0.0566,0.0566,0.0567,0,-0.0892,-0.0937,-0.099,-0.1034,-0.1049,-0.104,-0.1,-0.0953,-0.0876,-0.0727,-0.0588,-0.0314,-0.006,0.0177,0.0431,0.0576,0.0553,0.058,0.053,0.0525,0.052,0.0494,0.057,0.057,0.0571,0.0571,0,0,-0.0923,-0.0996,-0.1027,-0.1071,-0.1086,-0.1073,-0.1041,-0.0965,-0.0844,-0.0684,-0.0525,-0.0339,-0.0031,0.0144,0.0331,0.0466,0.0447,0.0463,0.0445,0.0359,0.0352,0.0475,0.0427,0,0,0,0,0]}],[{"header":{"parameterUnit":"m.s-1","parameterCategory":2,"la1":30.2991,"la2":30.254,"lo1":-89.0895,"lo2":-89.0444,"dy":0.0017,"dx":0.0017,"nx":28,"ny":28,"refTime":"2023-11-04T21:00:00:Z","depth":"4","parameterNumber":2,"parameterNumberName":"U-component_of_CURRENTS"},"data":[0,0,0,0,0,0,0,0,0,0,0,0,0,0,0,0,0,0,0,0,0,0,0,0,0,0,0,0,0,0,0,0,0,0,0,0,0,0,0,0,0,0,0,0,0,0,0,0,0,0,0,0,0,0,0,0,0,0,-0.1288,-0.1289,0,-0.1344,-0.1345,-0.1345,-0.1393,-0.1394,-0.1395,-0.1395,-0.1492,-0.1494,-0.1496,0,0,0,0,0,0,0,0,0,0,0,0,0,-0.1177,-0.1178,-0.1288,-0.1289,-0.129,-0.1344,-0.1345,-0.1345,-0.1393,-0.1394,-0.1395,-0.1396,-0.1491,-0.1494,-0.1496,0,0,0,0,0,0,0,0,0,0,0,0,0,-0.1226,-0.1179,-0.1288,-0.1321,-0.1325,-0.1344,-0.1345,-0.1345,-0.1393,-0.1394,-0.1395,-0.1396,-0.1491,-0.1493,-0.1496,-0.1493,0,0,-0.1505,-0.1506,0,0,0,0,0,0,0,0,-0.1224,-0.123,-0.1316,-0.1319,-0.1323,-0.1364,-0.1341,-0.1397,-0.1393,-0.1365,-0.1395,-0.1397,-0.1453,-0.1459,-0.1465,-0.1497,-0.1502,-0.1505,-0.1507,-0.1508,-0.1509,0,0,0,0,0,0,0,-0.122,-0.1228,-0.1308,-0.1316,-0.1321,-0.1318,-0.1327,-0.1351,-0.1402,-0.1368,-0.1372,-0.1381,-0.1456,-0.1462,-0.1467,-0.1503,-0.1505,-0.1508,-0.151,-0.1511,-0.1569,-0.1569,0,0,0,0,0,0,-0.1218,-0.1225,-0.1306,-0.131,-0.1277,-0.132,-0.1329,-0.1349,-0.1401,-0.141,-0.138,-0.1383,-0.1456,-0.1464,-0.1471,-0.153,-0.1508,-0.1511,-0.1513,-0.1569,-0.1569,-0.1569,0,0,0,0,0,0,-0.1216,-0.1225,-0.1304,-0.1269,-0.128,-0.1321,-0.1342,-0.1349,-0.1383,-0.141,-0.142,-0.141,-0.1457,-0.1467,-0.1521,-0.1532,-0.1512,-0.1515,-0.157,-0.1569,-0.1569,-0.161,0,0,0,0,0,0,-0.1213,-0.1224,-0.1242,-0.127,-0.1282,-0.1335,-0.1342,-0.135,-0.1386,-0.1391,-0.1438,-0.1447,-0.1459,-0.1517,-0.1524,-0.1536,-0.1517,-0.157,-0.1569,-0.1569,-0.1609,-0.1611,-0.1613,0,0,0,0,0,-0.1209,-0.1227,-0.1242,-0.1252,-0.1303,-0.1336,-0.1342,-0.1373,-0.1387,-0.1406,-0.1442,-0.1447,-0.1519,-0.1521,-0.1529,-0.1541,-0.157,-0.1569,-0.1569,-0.1608,-0.1611,-0.1613,0,0,0,0,0,0,-0.1187,-0.1235,-0.1252,-0.1285,-0.1318,-0.1346,-0.137,-0.1386,-0.1427,-0.1441,-0.1464,-0.1475,-0.1515,-0.1521,-0.1522,-0.1551,-0.1537,-0.1538,-0.1564,-0.1567,-0.1569,-0.1569,-0.152,0,0,0,0,0,-0.119,-0.1222,-0.126,-0.129,-0.1311,-0.1344,-0.1363,-0.1385,-0.1421,-0.1441,-0.1474,-0.1498,-0.1512,-0.1539,-0.1551,-0.1587,-0.158,-0.1591,-0.1593,-0.1595,-0.1598,-0.161,-0.1615,-0.1568,-0.1568,-0.1568,0,0,-0.1189,-0.1221,-0.1239,-0.1288,-0.1319,-0.1349,-0.1359,-0.1401,-0.1425,-0.1445,-0.15,-0.1512,-0.152,-0.1552,-0.1569,-0.1569,-0.16,-0.1595,-0.1597,-0.1598,-0.1611,-0.1615,-0.162,-0.1567,-0.1567,-0.1567,0,0,-0.1201,-0.1238,-0.1269,-0.1296,-0.1346,-0.1368,-0.1385,-0.1431,-0.1457,-0.1501,-0.151,-0.1538,-0.1574,-0.1583,-0.1587,-0.1609,-0.1605,-0.1606,-0.1634,-0.1647,-0.1651,-0.1655,-0.1637,-0.1639,-0.1616,-0.1616,-0.1616,0,-0.1203,-0.1247,-0.1281,-0.1312,-0.1342,-0.138,-0.1415,-0.1437,-0.1493,-0.1521,-0.1525,-0.1569,-0.1581,-0.161,-0.1613,-0.1615,-0.1615,-0.163,-0.1652,-0.1656,-0.1659,-0.1639,-0.1641,-0.1618,-0.1618,-0.1617,-0.1617,0,-0.1227,-0.127,-0.1293,-0.1349,-0.1379,-0.142,-0.1456,-0.1497,-0.153,-0.155,-0.1595,-0.1607,-0.1637,-0.1633,-0.1634,-0.166,-0.1647,-0.1649,-0.1651,-0.1667,-0.1644,-0.1645,-0.1621,-0.162,-0.1619,-0.1619,0,0,-0.1223,-0.1298,-0.1311,-0.1347,-0.1408,-0.1438,-0.1485,-0.1542,-0.158,-0.1613,-0.1655,-0.1668,-0.1681,-0.1685,-0.1687,-0.1697,-0.171,-0.1691,-0.169,-0.1682,-0.1724,-0.1598,-0.1587,-0.1729,-0.173,-0.173,-0.1693,0,-0.1244,-0.1309,-0.1341,-0.1407,-0.1447,-0.1495,-0.1535,-0.1583,-0.1621,-0.1667,-0.1678,-0.1707,-0.1697,-0.1714,-0.1725,-0.1714,-0.1718,-0.1719,-0.1701,-0.1699,-0.1595,-0.1586,-0.1733,-0.1694,-0.1694,-0.1694,-0.1694,0,-0.1252,-0.1306,-0.1372,-0.1454,-0.1478,-0.1515,-0.1601,-0.1639,-0.1695,-0.1724,-0.1757,-0.1763,-0.1781,-0.1765,-0.1763,-0.1769,-0.1752,-0.1735,-0.1733,-0.1604,-0.1576,-0.1677,-0.1696,-0.1696,-0.1696,-0.1696,-0.1696,0,-0.123,-0.1322,-0.1383,-0.1408,-0.15,-0.1546,-0.1597,-0.1662,-0.1699,-0.1758,-0.1781,-0.1809,-0.1813,-0.181,-0.1771,-0.178,-0.175,-0.1758,-0.1624,-0.1615,-0.1725,-0.1721,-0.1757,-0.1757,-0.1757,-0.1757,-0.1757,0,-0.1225,-0.1277,-0.1381,-0.1413,-0.1487,-0.1548,-0.1618,-0.1672,-0.1735,-0.1755,-0.1807,-0.1804,-0.1828,-0.181,-0.1783,-0.1689,-0.1761,-0.1616,-0.1597,-0.1738,-0.1737,-0.1725,-0.1721,-0.1755,-0.1756,-0.1756,-0.1756,0,-0.1176,-0.1247,-0.132,-0.1437,-0.1473,-0.1522,-0.1622,-0.1656,-0.173,-0.1753,-0.1769,-0.1808,-0.1767,-0.1763,-0.1736,-0.1679,-0.1619,-0.1572,-0.1701,-0.1691,-0.1473,-0.1472,-0.1418,-0.1413,-0.1409,-0.1406,-0.1403,0,-0.1153,-0.1188,-0.1317,-0.1354,-0.141,-0.1492,-0.1535,-0.1637,-0.1654,-0.1721,-0.1706,-0.1712,-0.171,-0.1565,-0.1585,-0.1517,-0.1502,-0.1471,-0.1488,-0.1451,-0.1439,-0.1445,-0.1449,-0.1396,-0.1395,-0.1394,-0.1393,0,-0.1107,-0.1161,-0.122,-0.1293,-0.1352,-0.1407,-0.147,-0.1478,-0.1559,-0.1649,-0.159,-0.1557,-0.1505,-0.1465,-0.1419,-0.1377,-0.1492,-0.1428,-0.1437,-0.1453,-0.1425,-0.1418,-0.1427,-0.1379,-0.1381,-0.1383,-0.1383,0,-0.1064,-0.1087,-0.1156,-0.1205,-0.1272,-0.1277,-0.1339,-0.1345,-0.1381,-0.1458,-0.1428,-0.1432,-0.1476,-0.1389,-0.1346,-0.1292,-0.1276,-0.1246,-0.1264,-0.1279,-0.125,-0.1196,-0.1051,0,0,0,0,0,-0.1009,-0.1015,-0.1055,-0.1093,-0.115,-0.1176,-0.1262,-0.1319,-0.1402,-0.132,-0.1371,-0.1311,-0.1244,-0.1256,-0.1166,-0.1277,-0.1281,-0.1169,-0.1257,-0.1302,-0.1318,-0.1296,0,0,0,0,0,0,-0.0967,-0.1008,-0.1015,-0.0974,-0.0968,-0.1006,-0.1054,-0.1121,-0.1085,-0.1178,-0.1144,-0.122,-0.1171,-0.1253,-0.1128,-0.113,-0.1158,-0.1188,-0.1185,-0.1293,-0.1307,-0.132,-0.1303,0,0,0,0,0]},{"header":{"parameterUnit":"m.s-1","parameterCategory":2,"la1":30.2991,"la2":30.254,"lo1":-89.0895,"lo2":-89.0444,"dy":0.0017,"dx":0.0017,"nx":28,"ny":28,"refTime":"2023-11-04T21:00:00:Z","depth":"4","parameterNumber":3,"parameterNumberName":"V-component_of_CURRENTS"},"data":[0,0,0,0,0,0,0,0,0,0,0,0,0,0,0,0,0,0,0,0,0,0,0,0,0,0,0,0,0,0,0,0,0,0,0,0,0,0,0,0,0,0,0,0,0,0,0,0,0,0,0,0,0,0,0,0,0,0,-0.0369,-0.0368,0,-0.0343,-0.0343,-0.0343,-0.0329,-0.0329,-0.0329,-0.0329,-0.0276,-0.0274,-0.0273,0,0,0,0,0,0,0,0,0,0,0,0,0,-0.039,-0.039,-0.0369,-0.0368,-0.0368,-0.0343,-0.0343,-0.0343,-0.0329,-0.0329,-0.0329,-0.0329,-0.0276,-0.0274,-0.0273,0,0,0,0,0,0,0,0,0,0,0,0,0,-0.0375,-0.039,-0.0369,-0.0358,-0.0357,-0.0343,-0.0343,-0.0343,-0.0329,-0.0329,-0.0329,-0.0329,-0.0277,-0.0275,-0.0273,-0.0262,0,0,-0.0266,-0.0266,0,0,0,0,0,0,0,0,-0.0376,-0.0374,-0.036,-0.0359,-0.0357,-0.0339,-0.0331,-0.0314,-0.0329,-0.034,-0.0329,-0.0329,-0.0294,-0.029,-0.0287,-0.026,-0.0258,-0.0266,-0.0265,-0.0264,-0.0264,0,0,0,0,0,0,0,-0.0377,-0.0375,-0.0359,-0.0359,-0.0358,-0.0349,-0.0347,-0.0328,-0.0318,-0.0339,-0.0338,-0.0334,-0.0293,-0.0289,-0.0286,-0.0257,-0.0266,-0.0264,-0.0263,-0.0262,-0.0228,-0.0228,0,0,0,0,0,0,-0.038,-0.0376,-0.036,-0.0358,-0.0366,-0.0349,-0.0346,-0.0345,-0.0319,-0.0315,-0.0335,-0.0334,-0.0293,-0.0288,-0.0284,-0.026,-0.0264,-0.0262,-0.0261,-0.0228,-0.0228,-0.0228,0,0,0,0,0,0,-0.038,-0.0379,-0.0361,-0.0366,-0.0363,-0.0348,-0.0347,-0.0345,-0.0347,-0.0315,-0.0311,-0.034,-0.0292,-0.0286,-0.0271,-0.0258,-0.0261,-0.0259,-0.0227,-0.0228,-0.0228,-0.0219,0,0,0,0,0,0,-0.0381,-0.0379,-0.0385,-0.0366,-0.0363,-0.0358,-0.0347,-0.0344,-0.0344,-0.0343,-0.0318,-0.0313,-0.0292,-0.0275,-0.0269,-0.0255,-0.0258,-0.0227,-0.0227,-0.0228,-0.0218,-0.0219,-0.0219,0,0,0,0,0,-0.0382,-0.0387,-0.0385,-0.0383,-0.0369,-0.0358,-0.0355,-0.0345,-0.0345,-0.0346,-0.033,-0.0314,-0.0274,-0.0273,-0.0267,-0.0252,-0.0227,-0.0227,-0.0228,-0.0218,-0.0219,-0.0219,0,0,0,0,0,0,-0.0401,-0.0386,-0.0383,-0.0384,-0.0375,-0.0355,-0.0356,-0.0351,-0.0341,-0.0341,-0.0315,-0.0308,-0.0292,-0.028,-0.0279,-0.0247,-0.0249,-0.0248,-0.0244,-0.0244,-0.0244,-0.0238,-0.0256,0,0,0,0,0,-0.0408,-0.0412,-0.0392,-0.0398,-0.039,-0.0377,-0.0373,-0.0366,-0.0352,-0.0348,-0.033,-0.0312,-0.029,-0.0274,-0.026,-0.0238,-0.0209,-0.0228,-0.0228,-0.0228,-0.0221,-0.0155,-0.0147,-0.0231,-0.0231,-0.023,0,0,-0.0418,-0.0412,-0.0414,-0.0403,-0.0394,-0.0384,-0.0375,-0.0371,-0.0364,-0.0342,-0.0333,-0.0315,-0.0288,-0.0264,-0.0255,-0.025,-0.0194,-0.0229,-0.0229,-0.0222,-0.0154,-0.0146,-0.0138,-0.0231,-0.0231,-0.0231,0,0,-0.0435,-0.0433,-0.0436,-0.0426,-0.0414,-0.0401,-0.0402,-0.0385,-0.0377,-0.037,-0.0346,-0.0316,-0.0302,-0.0259,-0.024,-0.0233,-0.0202,-0.0241,-0.0223,-0.0159,-0.015,-0.0143,-0.011,-0.0099,-0.0232,-0.0232,-0.0232,0,-0.0447,-0.0448,-0.0436,-0.0431,-0.0423,-0.0409,-0.0403,-0.0392,-0.0375,-0.0359,-0.0371,-0.0315,-0.0292,-0.0231,-0.023,-0.0228,-0.0203,-0.0221,-0.0155,-0.0147,-0.0139,-0.0107,-0.0096,-0.0232,-0.0232,-0.0232,-0.0232,0,-0.0457,-0.0459,-0.0459,-0.0447,-0.0437,-0.0433,-0.0409,-0.0401,-0.0397,-0.0377,-0.0338,-0.0303,-0.0262,-0.0251,-0.0239,-0.017,-0.0176,-0.0166,-0.0148,-0.013,-0.0098,-0.0086,-0.0231,-0.0231,-0.0232,-0.0232,0,0,-0.0476,-0.0467,-0.0467,-0.0465,-0.0444,-0.0437,-0.042,-0.039,-0.037,-0.0352,-0.0316,-0.0269,-0.0244,-0.0221,-0.0189,-0.0132,-0.006,-0.013,-0.0127,-0.0087,0.0061,0.0025,0.0034,-0.0037,-0.0035,-0.0033,0.0056,0,-0.0486,-0.0488,-0.0474,-0.0472,-0.0468,-0.0442,-0.0426,-0.0397,-0.0373,-0.0337,-0.028,-0.0246,-0.0233,-0.0212,-0.0148,-0.0087,-0.0027,-0.0087,0.0027,0.003,0.0006,0.0048,-0.0025,0.0065,0.0068,0.007,0.0071,0,-0.0492,-0.0496,-0.0499,-0.0484,-0.0476,-0.0471,-0.0433,-0.0417,-0.0353,-0.0332,-0.0272,-0.0238,-0.0152,-0.0152,-0.0014,-0.0057,0.0003,0.0051,0.0056,0.003,0.0017,0.0045,0.0093,0.0091,0.009,0.0088,0.0087,0,-0.0514,-0.0508,-0.0515,-0.0511,-0.0491,-0.0483,-0.0469,-0.0418,-0.0397,-0.0327,-0.0304,-0.0202,-0.0159,-0.0061,0.002,0.0011,0.016,0.0165,0.0194,0.0191,0.0193,0.0184,0.0277,0.0277,0.0277,0.0277,0.0276,0,-0.0522,-0.0527,-0.0531,-0.0535,-0.0543,-0.0512,-0.0499,-0.0467,-0.041,-0.0379,-0.0306,-0.0258,-0.0133,-0.0045,0.0035,0.0142,0.0179,0.0209,0.0224,0.0189,0.0179,0.02,0.019,0.028,0.0279,0.0279,0.0278,0,-0.0538,-0.0539,-0.0557,-0.0555,-0.0558,-0.0566,-0.0543,-0.0527,-0.0468,-0.0423,-0.0405,-0.0289,-0.0174,-0.006,0.0099,0.0153,0.026,0.029,0.0226,0.0233,0.0244,0.0233,0.0346,0.0346,0.0346,0.0346,0.0345,0,-0.0542,-0.0557,-0.059,-0.0615,-0.062,-0.0626,-0.0629,-0.0573,-0.0548,-0.0444,-0.0422,-0.0302,-0.0223,-0.0026,0.0095,0.0253,0.027,0.0318,0.0305,0.0254,0.0258,0.0247,0.0237,0.0345,0.0345,0.0345,0.0345,0,-0.056,-0.0583,-0.0606,-0.0666,-0.069,-0.0699,-0.0692,-0.067,-0.0593,-0.0543,-0.043,-0.0316,-0.0183,-0.0032,0.0085,0.0198,0.0283,0.0316,0.0317,0.0306,0.0254,0.0256,0.0246,0.0344,0.0344,0.0344,0.0344,0,-0.0583,-0.0617,-0.0666,-0.0708,-0.0748,-0.0756,-0.0742,-0.0692,-0.0649,-0.052,-0.0487,-0.0328,-0.0225,-0.0059,0.0051,0.0154,0.0185,0.021,0.0218,0.022,0.015,0.0063,0.0122,0,0,0,0,0,-0.0601,-0.0646,-0.07,-0.0747,-0.0784,-0.0797,-0.0776,-0.0744,-0.0665,-0.0596,-0.0532,-0.0408,-0.0212,-0.0117,-0.0018,0.0036,0.0188,0.0153,0.0217,0.034,0.0341,0.0276,0,0,0,0,0,0,-0.0617,-0.0679,-0.0709,-0.0766,-0.0797,-0.0824,-0.0808,-0.0755,-0.0696,-0.0607,-0.0502,-0.041,-0.0222,-0.028,-0.0028,0.0009,0.0058,0.0257,0.0259,0.0339,0.034,0.0341,0.0274,0,0,0,0,0]}]]